Wind_Speed
43 42 42 41 40 39 39 38 38 36 34 31 29 28 27 26 26 26 25 25 25 26 27 28 28 30 33 37 40 43 45 47 48 47 48 49 51 50 50 50 50 50 49 47
44 43 43 42 40 39 38 38 37 35 32 30 29 28 28 26 25 24 24 25 26 27 28 29 30 31 33 35 37 40 44 46 47 46 47 49 50 51 50 50 49 48 47 47
45 44 44 42 40 40 39 38 36 35 32 30 28 27 28 26 25 24 23 24 26 27 29 29 31 33 35 34 34 38 43 45 46 46 46 48 49 50 51 50 49 48 47 45
47 46 44 42 42 41 40 37 35 34 32 30 28 27 26 25 25 24 24 24 25 26 28 29 31 33 36 36 35 37 41 46 46 44 45 48 49 50 49 49 48 47 46 43
47 48 47 43 42 40 39 36 34 34 32 31 29 27 26 26 25 25 24 24 25 26 28 28 30 32 34 35 36 37 40 43 45 44 44 46 47 49 50 49 47 46 45 43
47 48 48 45 43 41 39 37 34 34 33 31 30 29 26 26 26 26 25 25 25 26 28 29 29 32 33 34 35 36 40 42 43 42 43 45 46 46 47 48 47 46 45 43
46 47 48 45 42 40 39 37 36 35 33 31 31 30 27 26 26 26 26 25 26 27 29 30 30 31 33 34 35 37 41 42 42 41 43 44 45 45 46 47 47 47 45 44
46 46 46 43 41 39 38 38 37 36 34 32 31 29 29 27 27 26 27 27 27 28 29 30 30 32 33 34 35 36 40 41 41 41 43 44 45 45 45 46 46 45 43 43
46 45 43 42 40 39 38 37 36 35 34 32 31 29 28 28 27 27 27 27 28 28 29 29 30 31 33 34 34 35 38 40 41 41 43 44 44 44 45 44 44 43 42 41
46 43 41 40 39 38 37 37 36 35 33 31 30 29 27 26 26 26 26 26 27 28 29 29 29 30 31 33 35 36 38 40 40 40 42 43 44 44 43 44 44 42 41 39
45 42 41 39 38 37 37 36 35 33 32 31 30 28 26 24 24 24 24 24 26 27 29 29 28 28 30 32 34 36 38 39 41 39 40 42 43 44 43 42 43 42 40 38
43 41 41 38 37 37 36 35 34 33 31 29 29 27 25 23 22 22 22 22 24 26 27 27 27 27 29 31 33 35 37 38 39 40 41 42 43 43 42 42 42 42 40 39
42 40 40 38 37 36 36 35 33 31 30 28 27 26 24 22 21 21 21 22 23 24 25 26 26 27 29 31 32 33 35 36 36 38 40 41 43 43 42 42 43 43 41 40
41 40 39 37 36 35 35 33 32 30 28 27 26 25 23 21 20 20 21 21 21 22 23 24 25 26 28 30 32 33 35 35 36 37 38 39 40 41 41 41 41 42 41 40
39 39 38 36 35 34 33 32 30 28 27 26 25 24 22 20 20 19 20 20 20 20 22 23 24 25 27 29 31 33 35 35 35 37 38 39 39 40 41 41 40 40 39 38
37 37 36 35 34 33 32 30 29 27 26 25 23 22 22 21 19 19 19 19 19 19 20 21 23 24 26 28 30 32 34 35 36 37 37 38 39 40 41 41 41 40 39 38
36 35 35 34 33 32 31 29 28 27 26 24 23 22 21 20 19 19 19 18 18 19 20 20 22 23 24 27 30 31 33 34 35 36 37 38 40 40 40 39 40 39 38 38
35 35 34 33 32 31 29 28 27 26 25 24 23 22 20 19 18 19 18 18 18 19 20 20 22 23 24 26 28 30 31 32 34 36 36 38 39 39 40 39 39 39 38 38
34 34 32 31 31 29 28 27 26 25 24 23 22 21 20 20 19 19 18 18 18 18 19 20 21 22 23 25 26 29 31 31 32 35 36 37 38 39 39 39 38 38 38 37
33 32 31 31 30 28 26 26 25 24 23 22 21 21 21 20 20 19 18 18 18 18 19 19 20 22 23 24 26 27 30 31 32 33 35 37 37 38 39 39 38 38 37 36
32 31 30 29 28 27 26 24 24 22 21 21 20 20 20 20 20 19 18 17 17 17 19 19 20 21 21 22 24 26 29 31 32 33 34 35 37 38 38 38 38 37 36 35
30 29 29 28 27 26 24 23 22 22 21 21 21 20 20 20 19 19 17 17 17 18 19 19 19 20 20 22 24 25 27 29 31 33 34 35 36 37 37 37 38 36 35 34
29 28 27 27 26 25 23 22 22 22 22 21 21 21 21 20 19 18 17 17 17 18 18 19 19 19 19 21 23 25 26 28 30 31 33 35 36 36 36 36 37 36 34 32
28 28 27 26 26 24 23 22 22 22 22 21 21 21 21 20 19 19 18 17 17 18 18 19 19 19 20 21 23 24 26 28 29 30 31 34 35 34 35 36 36 36 36 34
28 27 26 26 25 24 23 22 22 21 21 21 21 21 20 20 20 19 18 17 17 18 18 19 19 20 21 22 24 25 25 27 28 29 30 32 33 33 34 34 34 35 35 33
27 26 25 24 23 23 22 22 22 21 21 20 20 19 19 18 18 18 17 17 16 17 18 19 20 20 21 22 24 24 24 26 28 29 29 31 32 33 33 34 34 34 33 32
26 25 25 24 23 23 23 22 22 21 21 20 20 19 18 18 18 17 17 16 16 17 18 19 19 21 22 23 23 24 24 25 27 29 29 31 33 33 32 33 34 34 33 31
Wind_Direction
317 319 320 320 321 319 315 313 310 310 307 303 298 295 292 287 279 273 269 262 257 251 244 237 231 227 224 220 219 219 219 218 217 217 217 218 218 219 221 223 224 225 228 229
315 316 317 318 320 318 316 313 311 311 309 303 296 292 291 287 279 273 266 261 255 249 241 237 233 230 225 221 220 221 220 219 219 219 217 217 219 221 223 223 222 225 226 228
314 315 316 318 319 316 315 314 311 310 308 302 296 291 288 285 279 272 264 259 254 248 241 238 234 232 228 224 222 222 221 220 220 219 218 217 218 221 222 222 223 224 225 226
313 314 316 320 318 316 314 314 311 309 305 300 297 294 289 285 279 271 262 257 253 248 242 238 234 231 228 226 225 224 221 221 221 220 220 220 219 220 220 220 221 222 224 225
311 312 315 319 318 316 314 311 308 306 302 299 297 294 289 285 279 272 263 257 252 246 242 239 235 230 228 226 225 223 220 220 220 221 221 221 220 220 220 220 223 223 222 225
310 311 314 318 316 315 312 312 309 305 302 299 297 293 288 282 277 270 265 257 251 246 242 241 238 234 231 228 225 221 218 219 219 220 219 219 218 219 219 221 223 224 224 225
308 309 312 316 315 313 311 311 308 306 303 300 296 293 289 283 276 270 265 259 252 246 244 242 239 237 233 230 227 223 219 218 219 218 217 217 217 219 219 221 223 224 225 225
307 308 312 313 311 310 308 307 307 306 303 300 297 292 288 282 276 270 266 260 254 248 246 243 240 238 233 232 228 224 221 219 218 217 215 213 215 217 218 220 223 224 225 226
305 307 308 308 308 307 305 305 306 304 303 300 297 293 289 282 276 270 266 260 254 250 247 243 241 238 235 232 228 224 220 218 216 214 213 213 214 215 217 217 219 221 224 227
304 306 305 305 304 303 302 303 304 303 301 299 296 293 289 285 278 271 267 260 254 250 248 245 243 238 234 230 227 224 221 218 215 214 214 215 215 216 218 218 219 219 221 223
303 304 303 303 301 300 300 301 302 301 299 298 295 294 289 285 279 272 269 261 254 250 249 247 243 238 232 228 225 222 219 217 216 214 214 214 215 216 216 218 218 219 219 221
303 303 301 301 299 299 299 300 299 297 296 294 292 292 289 283 277 273 269 262 255 252 249 245 240 234 230 226 223 220 217 216 217 217 215 214 215 215 215 217 217 218 220 220
301 301 300 300 298 297 297 297 296 294 292 290 288 288 288 282 275 273 268 263 257 251 245 241 236 231 228 226 223 219 217 216 215 215 214 214 214 214 214 216 217 218 218 219
299 299 298 297 295 295 294 294 293 290 289 287 286 284 284 280 275 273 270 265 258 248 241 237 233 229 227 224 222 219 217 216 216 215 214 212 212 212 212 213 214 216 216 217
298 298 297 295 294 293 293 291 289 288 287 286 285 283 280 276 271 269 267 265 257 247 240 234 230 228 226 224 221 219 218 216 216 215 213 211 210 210 210 209 211 213 213 215
296 296 296 295 293 292 290 288 286 285 285 283 281 279 278 277 273 266 262 262 254 246 239 234 231 230 228 223 219 218 218 218 217 214 213 210 209 209 210 210 211 211 212 213
296 297 296 294 292 291 289 286 284 282 281 279 277 277 276 274 271 265 262 259 252 244 238 232 229 227 225 222 219 218 217 216 214 212 211 210 208 208 208 208 210 211 212 213
295 296 296 295 293 291 287 285 283 280 277 275 273 272 271 269 266 260 258 255 249 243 239 233 229 226 222 219 217 216 214 212 211 209 207 206 206 206 207 208 209 210 211 213
294 295 296 295 294 291 287 284 281 278 275 272 269 268 267 266 263 259 255 253 248 242 236 230 227 224 220 215 215 215 214 212 209 207 204 204 205 206 206 208 208 209 210 211
293 294 294 295 294 291 287 283 279 275 272 269 267 266 264 263 262 258 253 250 248 239 231 227 224 222 220 216 214 213 211 210 208 205 205 205 204 205 206 206 207 208 208 209
292 292 293 293 292 290 287 282 277 271 268 267 266 265 263 261 259 256 253 246 242 235 227 224 223 222 220 215 211 209 209 208 207 206 206 204 204 203 203 204 204 204 205 206
292 292 292 292 290 288 284 279 274 270 267 267 266 264 262 259 257 254 252 243 236 232 225 222 222 221 219 214 209 206 206 205 205 206 205 203 202 201 200 200 199 200 203 205
290 291 291 289 288 285 280 276 273 271 269 267 264 261 259 257 253 248 245 241 235 229 224 220 217 216 212 206 203 201 202 203 202 202 202 200 198 198 198 198 198 199 200 201
289 290 289 287 285 280 276 274 273 271 269 266 263 260 257 253 249 242 237 235 230 223 220 217 213 210 207 201 198 197 196 197 198 197 196 195 195 196 196 195 197 197 197 198
288 289 288 285 282 278 275 273 272 271 268 264 260 257 254 249 241 234 230 226 224 218 213 211 208 204 199 196 194 193 194 194 195 195 194 193 194 194 194 194 195 195 196 197
287 288 287 285 282 278 275 273 271 269 266 261 256 253 250 242 233 227 222 218 215 210 206 202 200 197 194 192 190 190 189 191 191 190 190 190 190 190 190 192 192 192 194 196
284 284 284 283 282 279 276 273 270 266 262 258 253 249 243 233 224 218 213 207 203 198 194 191 189 187 188 188 187 187 184 184 186 187 187 187 187 187 188 188 189 190 192 194
Height
5559 5553 5548 5542 5538 5532 5525 5519 5513 5510 5506 5503 5500 5497 5495 5493 5492 5491 5491 5491 5492 5493 5495 5498 5501 5505 5509 5514 5520 5527 5534 5541 5549 5557 5565 5574 5583 5592 5600 5608 5617 5626 5634 5642
5552 5546 5539 5535 5532 5525 5519 5513 5507 5503 5500 5497 5493 5491 5489 5487 5485 5485 5485 5485 5486 5487 5490 5492 5496 5499 5504 5509 5514 5521 5527 5535 5542 5550 5558 5566 5575 5584 5592 5600 5609 5618 5626 5634
5542 5538 5531 5528 5524 5517 5512 5507 5501 5496 5494 5490 5487 5485 5482 5480 5479 5478 5478 5479 5479 5481 5484 5486 5490 5494 5498 5502 5508 5514 5520 5527 5535 5542 5550 5559 5567 5576 5584 5593 5601 5609 5617 5625
5531 5528 5523 5523 5515 5508 5503 5499 5494 5489 5486 5483 5480 5478 5476 5474 5472 5472 5472 5472 5473 5475 5477 5480 5483 5487 5491 5496 5501 5507 5513 5520 5528 5535 5543 5550 5559 5567 5576 5585 5593 5601 5610 5618
5521 5515 5512 5513 5507 5500 5494 5492 5488 5482 5479 5476 5473 5471 5470 5467 5466 5465 5465 5466 5467 5468 5471 5474 5477 5480 5484 5489 5495 5500 5506 5512 5520 5528 5535 5543 5551 5560 5569 5577 5585 5594 5602 5610
5513 5506 5502 5504 5498 5491 5487 5484 5480 5475 5472 5469 5466 5464 5464 5461 5459 5458 5458 5459 5460 5462 5465 5467 5470 5473 5478 5482 5487 5492 5498 5505 5513 5520 5527 5535 5544 5552 5561 5569 5578 5586 5594 5602
5505 5497 5494 5495 5488 5483 5480 5477 5471 5467 5464 5461 5458 5456 5455 5453 5452 5451 5451 5452 5453 5455 5458 5460 5463 5466 5471 5475 5480 5485 5491 5498 5505 5512 5520 5528 5536 5545 5553 5562 5571 5579 5587 5595
5497 5491 5490 5484 5479 5475 5472 5467 5463 5459 5456 5453 5450 5448 5446 5445 5444 5443 5443 5444 5445 5447 5450 5453 5456 5459 5463 5468 5472 5477 5483 5491 5498 5505 5513 5521 5529 5537 5546 5554 5563 5571 5578 5586
5489 5487 5482 5475 5470 5466 5462 5458 5455 5451 5448 5445 5442 5440 5438 5437 5436 5435 5435 5436 5437 5439 5442 5445 5448 5451 5455 5460 5464 5469 5476 5483 5490 5498 5505 5513 5521 5530 5538 5547 5555 5563 5571 5578
5478 5477 5472 5467 5462 5458 5454 5450 5447 5443 5440 5437 5434 5432 5430 5429 5428 5428 5427 5428 5429 5431 5434 5437 5440 5443 5447 5451 5456 5462 5469 5476 5483 5490 5497 5506 5514 5522 5531 5539 5548 5556 5563 5570
5468 5466 5461 5458 5453 5448 5445 5442 5438 5435 5432 5428 5426 5424 5423 5421 5420 5420 5420 5420 5421 5423 5426 5429 5432 5435 5439 5443 5448 5455 5461 5469 5476 5483 5490 5499 5507 5516 5524 5533 5541 5549 5556 5564
5459 5456 5450 5448 5444 5439 5436 5433 5430 5427 5424 5421 5419 5417 5416 5414 5413 5413 5413 5413 5414 5416 5419 5422 5425 5428 5432 5436 5441 5448 5455 5462 5469 5476 5484 5492 5500 5508 5517 5526 5533 5541 5549 5557
5448 5444 5440 5437 5434 5430 5427 5424 5421 5418 5416 5414 5412 5410 5409 5408 5407 5407 5407 5407 5408 5409 5412 5414 5418 5421 5425 5429 5435 5441 5448 5455 5462 5469 5477 5484 5493 5501 5510 5518 5525 5534 5541 5549
5438 5434 5430 5427 5424 5421 5418 5415 5412 5410 5408 5406 5405 5404 5402 5401 5401 5401 5400 5400 5401 5403 5405 5408 5411 5415 5418 5423 5428 5434 5441 5448 5454 5462 5469 5477 5485 5494 5502 5510 5518 5526 5534 5541
5428 5423 5420 5417 5414 5411 5408 5406 5404 5402 5401 5399 5398 5397 5396 5395 5395 5394 5394 5394 5395 5397 5399 5402 5405 5409 5412 5417 5422 5428 5434 5441 5447 5454 5461 5469 5477 5486 5494 5503 5511 5519 5527 5534
5417 5413 5410 5407 5405 5402 5400 5398 5396 5395 5393 5392 5391 5390 5389 5389 5388 5388 5388 5389 5390 5391 5393 5396 5399 5403 5406 5410 5415 5421 5427 5434 5440 5447 5454 5461 5469 5478 5487 5496 5504 5512 5520 5527
5407 5404 5401 5398 5395 5393 5391 5389 5388 5387 5386 5385 5384 5384 5383 5383 5383 5382 5383 5383 5384 5386 5388 5390 5393 5397 5400 5404 5409 5415 5421 5427 5433 5440 5447 5455 5463 5472 5481 5489 5498 5506 5513 5520
5397 5394 5391 5389 5387 5384 5383 5381 5380 5379 5378 5378 5377 5377 5377 5377 5377 5377 5377 5378 5379 5380 5382 5385 5388 5391 5395 5399 5403 5408 5414 5420 5427 5434 5441 5449 5458 5466 5475 5483 5491 5499 5506 5513
5387 5385 5383 5380 5378 5376 5374 5373 5372 5372 5371 5371 5371 5371 5371 5371 5371 5371 5372 5373 5374 5375 5377 5379 5382 5385 5390 5394 5398 5403 5409 5415 5421 5428 5436 5444 5452 5460 5469 5477 5485 5493 5501 5508
5379 5376 5374 5372 5370 5368 5367 5366 5365 5364 5364 5364 5364 5365 5365 5365 5365 5366 5366 5367 5368 5370 5372 5375 5378 5381 5385 5389 5393 5398 5403 5409 5416 5423 5431 5439 5447 5455 5463 5471 5480 5487 5495 5502
5370 5368 5366 5364 5362 5360 5359 5358 5358 5358 5358 5358 5358 5358 5359 5359 5359 5360 5361 5362 5364 5365 5367 5370 5373 5376 5380 5384 5388 5393 5398 5404 5411 5418 5426 5433 5441 5449 5457 5466 5474 5482 5490 5497
5362 5360 5358 5356 5354 5353 5352 5351 5351 5351 5351 5352 5352 5352 5353 5353 5354 5354 5355 5357 5359 5361 5363 5366 5368 5372 5375 5379 5384 5389 5394 5400 5406 5414 5421 5429 5437 5444 5452 5461 5469 5478 5485 5493
5353 5352 5350 5348 5347 5346 5345 5344 5344 5344 5344 5345 5345 5346 5346 5347 5348 5349 5351 5352 5354 5356 5359 5362 5365 5368 5371 5375 5380 5385 5391 5396 5402 5409 5416 5424 5432 5440 5448 5456 5465 5473 5481 5488
5345 5343 5342 5340 5339 5338 5337 5337 5337 5337 5337 5338 5338 5339 5339 5341 5342 5343 5345 5347 5349 5352 5355 5358 5361 5365 5369 5373 5378 5383 5388 5393 5399 5406 5413 5421 5429 5437 5445 5453 5461 5469 5477 5484
5337 5335 5334 5332 5331 5331 5330 5330 5330 5330 5330 5331 5331 5332 5333 5334 5336 5338 5340 5342 5345 5348 5351 5354 5358 5362 5366 5371 5376 5381 5386 5391 5397 5404 5410 5418 5426 5434 5442 5449 5457 5465 5473 5480
5328 5327 5326 5324 5323 5323 5323 5323 5323 5323 5323 5324 5325 5326 5327 5328 5330 5333 5335 5338 5341 5344 5348 5351 5355 5360 5364 5369 5374 5380 5385 5390 5396 5403 5409 5416 5424 5432 5439 5447 5455 5462 5470 5477
5320 5319 5318 5317 5316 5315 5315 5315 5315 5316 5316 5317 5318 5320 5321 5323 5326 5329 5332 5335 5338 5342 5346 5349 5353 5358 5363 5368 5374 5379 5384 5390 5396 5402 5409 5415 5423 5430 5437 5445 5453 5460 5468 5475